FW6932 Weather Reports


time (UTC)temp
C
wind
direction
speed
KPH
gust
KPH
rain 1hr
cm
rain 24hr
cm
rain mn
cm
humidity
%
barometer
mb
20260507001912 14 143 12.9 14.5 0.00 0.00 0.00 78 1011.8
20260507000748 15 149 8.0 12.9 0.00 0.00 0.00 77 1012.2
20260506235752 15 142 9.7 11.3 0.00 0.00 0.00 77 1012.3
20260506234712 15 104 3.2 3.2 0.00 0.00 0.00 76 1012.3
20260506233528 15 140 8.0 9.7 0.00 0.00 0.00 76 1012.2
20260506232612 15 152 11.3 12.9 0.00 0.00 0.00 75 1012.2
20260506231552 15 139 11.3 12.9 0.00 0.00 0.00 74 1012.0
20260506230536 15 125 8.0 9.7 0.00 0.00 0.00 74 1011.9
20260506225600 15 125 8.0 9.7 0.00 0.00 0.00 73 1012.3
20260506224540 16 141 8.0 9.7 0.00 0.00 0.00 73 1012.2
20260506223534 16 125 8.0 9.7 0.00 0.00 0.00 72 1012.2
20260506222553 16 154 11.3 12.9 0.00 0.00 0.00 72 1012.0
20260506221513 16 137 11.3 12.9 0.00 0.00 0.00 71 1011.8
20260506220329 16 154 4.8 4.8 0.00 0.00 0.00 70 1011.9
20260506215353 16 141 8.0 9.7 0.00 0.00 0.00 69 1011.8
20260506214313 17 180 4.8 4.8 0.00 0.00 0.00 69 1011.7
20260506213129 17 154 12.9 14.5 0.00 0.00 0.00 68 1011.6
20260506212153 17 126 9.7 11.3 0.00 0.00 0.00 67 1011.3
20260506211113 17 144 30.6 33.8 0.00 0.00 0.00 66 1011.5
20260506205949 17 138 14.5 16.1 0.00 0.00 0.00 65 1011.6
20260506204953 17 166 25.7 32.2 0.00 0.00 0.00 66 1011.6
20260506203913 17 143 16.1 17.7 0.00 0.00 0.00 65 1011.3
20260506202729 18 129 11.3 14.5 0.00 0.00 0.00 64 1011.4
20260506201753 18 168 8.0 9.7 0.00 0.00 0.00 64 1011.4
20260506200733 18 140 14.5 16.1 0.00 0.00 0.00 63 1011.2
20260506195529 18 165 19.3 32.2 0.00 0.00 0.00 63 1011.0
20260506194553 18 137 8.0 11.3 0.00 0.00 0.00 63 1011.3
20260506193513 18 153 6.4 9.7 0.00 0.00 0.00 63 1011.1
20260506192329 18 126 8.0 9.7 0.00 0.00 0.00 62 1011.2
20260506191353 18 101 8.0 9.7 0.00 0.00 0.00 64 1011.1
20260506190313 18 153 6.4 9.7 0.00 0.00 0.00 62 1011.1
20260506185129 18 137 6.4 8.0 0.00 0.00 0.00 61 1011.0
20260506184153 18 188 8.0 11.3 0.00 0.00 0.00 60 1010.7
20260506183113 18 168 6.4 11.3 0.00 0.00 0.00 60 1010.5
20260506181929 19 151 9.7 14.5 0.00 0.00 0.00 58 1010.5
20260506180954 19 132 8.0 9.7 0.00 0.00 0.00 56 1010.6
20260506175913 20 223 12.9 17.7 0.00 0.00 0.00 55 1010.3
20260506174749 20 153 16.1 17.7 0.00 0.00 0.00 54 1010.6
20260506173813 20 157 14.5 17.7 0.00 0.00 0.00 54 1010.5
20260506172713 20 130 17.7 22.5 0.00 0.00 0.00 55 1010.2
20260506171529 21 237 14.5 20.9 0.00 0.00 0.00 54 1010.1
20260506170553 21 148 12.9 17.7 0.00 0.00 0.00 54 1010.2
20260506165633 21 111 9.7 11.3 0.00 0.00 0.00 54 1010.5
20260506164329 21 167 4.8 4.8 0.00 0.00 0.00 53 1010.5
20260506163353 21 183 9.7 12.9 0.00 0.00 0.00 52 1010.3
20260506162313 21 168 6.4 8.0 0.00 0.00 0.00 52 1010.6
20260506161129 21 120 16.1 17.7 0.00 0.00 0.00 52 1010.7
20260506160214 21 144 8.0 9.7 0.00 0.00 0.00 54 1010.9
20260506155113 21 160 12.9 17.7 0.00 0.00 0.00 53 1011.0
20260506153929 22 164 8.0 11.3 0.00 0.00 0.00 53 1010.9
20260506152953 22 157 9.7 11.3 0.00 0.00 0.00 54 1010.9
20260506151914 21 157 6.4 8.0 0.00 0.00 0.00 54 1011.0
20260506150713 22 132 14.5 17.7 0.00 0.00 0.00 54 1011.1
20260506145549 22 130 12.9 17.7 0.00 0.00 0.00 54 1011.3
20260506144613 22 128 16.1 17.7 0.00 0.00 0.00 55 1011.4
20260506143513 21 126 12.9 16.1 0.00 0.00 0.00 55 1011.7
20260506142329 21 123 17.7 22.5 0.00 0.00 0.00 55 1011.3
20260506141353 22 128 14.5 17.7 0.00 0.00 0.00 54 1011.7
20260506140332 21 153 19.3 24.1 0.00 0.00 0.00 55 1011.8
20260506135129 21 131 14.5 16.1 0.00 0.00 0.00 55 1011.8
20260506134153 21 159 17.7 17.7 0.00 0.00 0.00 55 1012.0
20260506133112 22 155 27.4 32.2 0.00 0.00 0.00 54 1011.9
20260506131928 21 142 14.5 20.9 0.00 0.00 0.00 57 1012.2
20260506130953 22 151 14.5 16.1 0.00 0.00 0.00 55 1011.9
20260506125932 22 163 11.3 14.5 0.00 0.00 0.00 55 1012.2
20260506124933 21 131 14.5 16.1 0.00 0.00 0.00 56 1012.5
20260506124000 21 204 9.7 12.9 0.00 0.00 0.00 55 1012.3
20260506122921 21 170 11.3 14.5 0.00 0.00 0.00 56 1012.6
20260506121945 21 168 12.9 17.7 0.00 0.00 0.00 56 1012.5
20260506121009 21 185 6.4 8.0 0.00 0.00 0.00 58 1012.7
20260506115914 21 191 19.3 22.5 0.00 0.00 0.00 57 1012.7
20260506114730 21 169 14.5 16.1 0.00 0.00 0.00 56 1012.7
20260506113754 21 148 14.5 17.7 0.00 0.00 0.00 56 1012.6
20260506112715 20 152 17.7 20.9 0.00 0.00 0.00 58 1012.7
20260506111530 21 147 17.7 22.5 0.00 0.00 0.00 58 1012.8
20260506110554 21 111 19.3 24.1 0.00 0.00 0.00 59 1012.9
20260506105513 21 166 16.1 27.4 0.00 0.00 0.00 60 1013.0
20260506104329 20 142 14.5 16.1 0.00 0.00 0.00 58 1013.0
20260506103354 20 130 19.3 22.5 0.00 0.00 0.00 60 1012.8
20260506102333 20 123 12.9 14.5 0.00 0.00 0.00 61 1013.0
20260506101130 20 187 6.4 11.3 0.00 0.00 0.00 63 1012.8
20260506100214 20 146 11.3 12.9 0.00 0.00 0.00 62 1013.2
20260506095114 20 132 12.9 14.5 0.00 0.00 0.00 63 1013.1
20260506093930 19 76 9.7 14.5 0.00 0.00 0.00 65 1013.0
20260506093014 19 139 11.3 12.9 0.00 0.00 0.00 63 1013.2
20260506091913 18 147 12.9 16.1 0.00 0.00 0.00 64 1013.0
20260506090730 18 148 19.3 24.1 0.00 0.00 0.00 65 1013.1
20260506085814 18 131 6.4 8.0 0.00 0.00 0.00 67 1012.9
20260506084733 18 94 6.4 8.0 0.00 0.00 0.00 67 1013.2
20260506083530 18 113 8.0 9.7 0.00 0.00 0.00 65 1013.1
20260506082553 17 227 4.8 8.0 0.00 0.00 0.00 67 1012.9
20260506081514 17 143 3.2 4.8 0.00 0.00 0.00 68 1013.4
20260506080410 17 114 9.7 12.9 0.00 0.00 0.00 69 1013.0
20260506073339 17 92 8.0 11.3 0.00 0.00 0.00 70 1013.0
20260506072402 16 110 9.7 12.9 0.00 0.00 0.00 70 1013.1
20260506071322 16 118 8.0 8.0 0.00 0.00 0.00 71 1013.2
20260506070346 16 162 6.4 8.0 0.00 0.00 0.00 71 1013.4
20260506062154 15 182 8.0 11.3 0.00 0.00 0.00 73 1013.2
20260506061113 14 114 6.4 8.0 0.00 0.00 0.00 74 1013.1
20260506050933 13 130 4.8 4.8 0.00 0.00 0.00 77 1012.9
20260506045010 12 95 1.6 1.6 0.00 0.00 0.00 81 1013.0
20260506043914 11 75 0.0 0.0 0.00 0.00 0.00 82 1012.8
20260506042750 10 94 0.0 0.0 0.00 0.00 0.00 84 1012.8
20260506041754 11 86 0.0 0.0 0.00 0.00 0.00 83 1012.8
20260506040734 10 75 0.0 0.0 0.00 0.00 0.00 83 1012.9
20260506035530 10 73 4.8 4.8 0.00 0.00 0.00 84 1012.6
20260506034554 10 332 0.0 0.0 0.00 0.00 0.00 83 1012.7
20260506033514 11 82 0.0 0.0 0.00 0.00 0.00 82 1012.4
20260506032329 11 85 3.2 3.2 0.00 0.00 0.00 81 1012.5
20260506031355 11 65 3.2 3.2 0.00 0.00 0.00 81 1012.3
20260506030314 11 96 4.8 8.0 0.00 0.00 0.00 81 1012.3
20260506025129 11 86 3.2 3.2 0.00 0.00 0.00 80 1012.4
20260506024154 11 94 3.2 4.8 0.00 0.00 0.00 80 1012.5
20260506023114 11 54 1.6 1.6 0.00 0.00 0.00 80 1012.5
20260506022159 11 135 6.4 8.0 0.00 0.00 0.00 79 1012.2
20260506021202 11 114 11.3 12.9 0.00 0.00 0.00 79 1012.2
20260506020122 12 61 4.8 8.0 0.00 0.00 0.00 78 1012.3
20260506015146 11 65 4.8 4.8 0.00 0.00 0.00 79 1012.3
20260506014154 12 81 1.6 1.6 0.00 0.00 0.00 78 1012.3
20260506013115 12 129 8.0 9.7 0.00 0.00 0.00 78 1011.9
20260506011930 11 90 4.8 4.8 0.00 0.00 0.00 79 1012.2
20260506010954 12 69 1.6 3.2 0.00 0.00 0.00 78 1012.1
20260506005914 12 68 1.6 3.2 0.00 0.00 0.00 78 1012.1
20260506004729 12 75 4.8 8.0 0.00 0.00 0.00 78 1011.9
20260506003754 11 59 1.6 3.2 0.00 0.00 0.00 78 1011.9
20260506002714 12 75 1.6 3.2 0.00 0.00 0.00 76 1011.9